Location: Bühlhof
(48.7849°N, 8.6361°E)
Time: 00:07:35
(UTC+00:00)

Meteor 1-23 Rocket - Pass Details

Date: 19 January 2026
Orbit: 840 x 882 km, 81.3° (Epoch: 18 February)

Event Time Altitude Azimuth Distance (km) Brightness Sun altitude
Rises 16:41:48 0° 183° (S) 3,426 7.8 -6.6°
Reaches altitude 10° 16:44:13 10° 182° (S) 2,487 7.0 -6.9°
Maximum altitude 16:49:50 73° 99° (E) 891 4.2 -7.8°
Drops below altitude 10° 16:55:27 10° 15° (NNE) 2,480 6.3 -8.7°
Sets 16:57:52 0° 14° (NNE) 3,416 7.0 -9.0°
